Weather History for Hatteras, NC

Change the Weather History Date:

Thursday, October 2, 2014

  Actual Average Record
Temperature  
Mean Temperature 70 °F 70 °F  
Max Temperature 75 °F 76 °F 89 °F (1986)
Min Temperature 64 °F 64 °F 47 °F (1987)
Degree Days  
Heating Degree Days 0 1  
Month to date heating degree days 0 2  
Since 1 July heating degree days 0 5  
Cooling Degree Days 5 6  
Month to date cooling degree days 11 12  
Year to date cooling degree days 1674 1604  
Growing Degree Days 18 (Base 50)    
Moisture  
Dew Point 63 °F    
Average Humidity 81    
Maximum Humidity 93    
Minimum Humidity 68    
Precipitation  
Precipitation 0.00 in 0.19 in 2.49 in (1906)
Month to date precipitation 0.00 0.38  
Year to date precipitation 51.89 43.82  
Snow  
Snow 0.00 in - - ()
Month to date snowfall 0.0  
Since 1 July snowfall 0.0  
Snow Depth 0.00 in    
Sea Level Pressure  
Sea Level Pressure 30.07 in    
Wind  
Wind Speed 5 mph (NNE)    
Max Wind Speed 10 mph    
Max Gust Speed 17 mph    
Visibility 10 miles    
Events      
T = Trace of Precipitation, MM = Missing Value Source: NWS Daily Summary

Daily Weather History Graph

Daily Weather History Graph

Search for Another Location

Airport:

Trip Planner

Search our weather history database for the weather conditions in past years. The results will help you decide how hot, cold, wet, or windy it might be!

Date:

Astronomy

Oct. 02, 2014 Rise Set
Actual Time 6:58 AM EDT 6:44 PM EDT
Civil Twilight 6:32 AM EDT 7:10 PM EDT
Nautical Twilight 6:03 AM EDT 7:39 PM EDT
Astronomical Twilight 5:33 AM EDT 8:09 PM EDT
Moon 2:37 PM EDT (10/2) 12:24 AM EDT (10/2)
Length of Visible Light 12h 37m
Length of Day
11h 46m
First Quarter, 60% of the Moon is Illuminated
Oct 2
First Quarter
Oct 8
Full
Oct 15
Last Quarter
Oct 23
New
Oct 30
First Quarter

Hourly Weather History & Observations

Time (EDT) Temp. Dew Point Humidity Pressure Visibility Wind Dir Wind Speed Gust Speed Precip Events Conditions
12:51 AM 66.0 °F 64.0 °F 93% 30.03 in 10.0 mi NE 4.6 mph - N/A   Clear
1:51 AM 66.0 °F 63.0 °F 90% 30.03 in 10.0 mi NE 5.8 mph - N/A   Clear
2:51 AM 64.9 °F 63.0 °F 93% 30.04 in 10.0 mi NE 4.6 mph - N/A   Clear
3:22 AM 66.9 °F 66.0 °F 97% 29.87 in 10.0 mi NNE 9.2 mph - N/A   Mostly Cloudy
3:51 AM 64.9 °F 63.0 °F 93% 30.04 in 10.0 mi NNE 4.6 mph - N/A   Clear
4:51 AM 64.9 °F 62.1 °F 90% 30.05 in 10.0 mi NE 3.5 mph - N/A   Clear
5:51 AM 64.9 °F 62.1 °F 90% 30.06 in 10.0 mi NNE 3.5 mph - N/A   Clear
6:51 AM 64.9 °F 62.1 °F 90% 30.07 in 10.0 mi North 4.6 mph - N/A   Clear
7:51 AM 68.0 °F 66.0 °F 93% 29.92 in 10.0 mi NNE 9.2 mph - N/A   Partly Cloudy
8:51 AM 70.0 °F 63.0 °F 78% 30.10 in 10.0 mi North 5.8 mph - N/A   Clear
9:51 AM 71.1 °F 63.0 °F 75% 30.11 in 10.0 mi North 5.8 mph - N/A   Partly Cloudy
10:51 AM 71.1 °F 63.0 °F 75% 30.11 in 10.0 mi Variable 5.8 mph - N/A   Mostly Cloudy
11:19 AM 73.0 °F 64.0 °F 73% 30.11 in 10.0 mi Variable 6.9 mph - N/A   Scattered Clouds
11:51 AM 73.0 °F 63.0 °F 71% 30.10 in 10.0 mi Variable 5.8 mph - N/A   Partly Cloudy
12:51 PM 73.9 °F 63.0 °F 68% 30.10 in 10.0 mi NNE 8.1 mph - N/A   Partly Cloudy
1:51 PM 73.9 °F 63.0 °F 68% 30.09 in 10.0 mi North 8.1 mph - N/A   Partly Cloudy
2:32 PM 73.0 °F 63.0 °F 71% 30.09 in 10.0 mi NNE 8.1 mph - N/A   Mostly Cloudy
2:44 PM 73.0 °F 63.0 °F 71% 30.09 in 10.0 mi Variable 5.8 mph - N/A   Scattered Clouds
2:51 PM 73.9 °F 63.0 °F 68% 30.09 in 10.0 mi Variable 6.9 mph - N/A   Scattered Clouds
3:51 PM 73.0 °F 63.0 °F 71% 30.08 in 10.0 mi NNE 6.9 mph - N/A   Clear
4:51 PM 72.0 °F 62.1 °F 71% 30.07 in 10.0 mi Variable 6.9 mph - N/A   Clear
5:51 PM 70.0 °F 62.1 °F 76% 30.07 in 10.0 mi NE 6.9 mph - N/A   Clear
6:51 PM 66.9 °F 61.0 °F 81% 30.07 in 10.0 mi NE 4.6 mph - N/A   Clear
7:51 PM 66.0 °F 62.1 °F 87% 30.08 in 10.0 mi NE 5.8 mph - N/A   Clear
8:51 PM 66.0 °F 62.1 °F 87% 30.09 in 10.0 mi NE 6.9 mph - N/A   Clear
9:51 PM 66.0 °F 62.1 °F 87% 30.09 in 10.0 mi NE 5.8 mph - N/A   Clear
10:51 PM 66.0 °F 61.0 °F 84% 30.09 in 10.0 mi NE 5.8 mph - N/A   Clear
11:51 PM 64.9 °F 61.0 °F 87% 30.10 in 10.0 mi NE 3.5 mph - N/A   Clear